Detroit, MI

6:25 AM EST on February 22, 2017 (GMT -0500)
Detroit Metro Wayne County

Weather History for KDTW - November, 2011

Change the Weather History Date:

Monday, November 7, 2011

  Actual Average Record
Temperature  
Mean Temperature 57 °F 45 °F  
Max Temperature 61 °F 53 °F 70 °F (1916)
Min Temperature 53 °F 37 °F 20 °F (1971)
Degree Days  
Heating Degree Days 8 20  
Month to date heating degree days 106 133  
Since 1 July heating degree days 538 644  
Cooling Degree Days 0 0  
Month to date cooling degree days 0 0  
Year to date cooling degree days 1060 803  
Growing Degree Days 7 (Base 50)    
Moisture  
Dew Point 48 °F    
Average Humidity 69    
Maximum Humidity 86    
Minimum Humidity 51    
Precipitation  
Precipitation 0.03 in 0.09 in 1.33 in (1996)
Month to date precipitation 0.03 0.63  
Year to date precipitation 38.94 28.85  
Snow  
Snow 0.00 in 0.00 in 1.60 in (1953)
Month to date snowfall 0.0 0.1  
Since 1 July snowfall 0.0 0.2  
Since 1 September snowfall 0.0 0.2  
Snow Depth 0.00 in    
Sea Level Pressure  
Sea Level Pressure 30.22 in    
Wind  
Wind Speed 8 mph (SSW)    
Max Wind Speed 16 mph    
Max Gust Speed 20 mph    
Visibility 7 miles    
Events Rain    
T = Trace of Precipitation, MM = Missing Value Source: NWS Daily Summary

Daily Weather History Graph

Daily Weather History Graph

Search for Another Location

Airport or City:

Trip Planner

Search our weather history database for the weather conditions in past years. The results will help you decide how hot, cold, wet, or windy it might be!

Date:

Astronomy

Nov. 07, 2011 Rise Set
Actual Time 7:13 AM EST 5:20 PM EST
Civil Twilight 6:43 AM EST 5:49 PM EST
Nautical Twilight 6:10 AM EST 6:22 PM EST
Astronomical Twilight 5:37 AM EST 6:55 PM EST
Moon 3:32 PM EST (11/7) 4:12 AM EST (11/7)
Length of Visible Light 11h 05m
Length of Day
10h 06m
Waxing Gibbous, 91% of the Moon is Illuminated
Nov 7
Waxing Gibbous
Nov 10
Full
Nov 18
Last Quarter
Nov 25
New
Dec 2
First Quarter

Hourly Weather History & Observations

Time (EST) Temp. Dew Point Humidity Pressure Visibility Wind Dir Wind Speed Gust Speed Precip Events Conditions
12:53 AM 55.4 °F 37.4 °F 51% 30.18 in 10.0 mi South 12.7 mph - N/A   Overcast
1:53 AM 57.0 °F 39.0 °F 51% 30.19 in 10.0 mi SSW 12.7 mph - N/A   Overcast
2:53 AM 57.0 °F 39.9 °F 53% 30.19 in 10.0 mi SSW 11.5 mph - N/A   Overcast
3:53 AM 57.0 °F 39.9 °F 53% 30.19 in 10.0 mi South 10.4 mph - N/A   Overcast
4:53 AM 55.0 °F 41.0 °F 59% 30.20 in 10.0 mi South 9.2 mph - N/A   Overcast
5:53 AM 54.0 °F 41.0 °F 62% 30.21 in 10.0 mi South 6.9 mph - N/A   Overcast
6:53 AM 53.1 °F 41.0 °F 64% 30.22 in 10.0 mi South 6.9 mph - N/A   Overcast
7:53 AM 53.6 °F 42.8 °F 67% 30.23 in 10.0 mi South 5.8 mph - N/A   Overcast
8:53 AM 55.9 °F 43.0 °F 62% 30.24 in 10.0 mi South 6.9 mph - N/A   Overcast
9:53 AM 55.9 °F 46.0 °F 69% 30.25 in 10.0 mi SSW 10.4 mph - 0.00 in   Overcast
10:53 AM 57.9 °F 46.9 °F 67% 30.25 in 10.0 mi SSW 9.2 mph - N/A   Overcast
11:53 AM 57.9 °F 48.0 °F 70% 30.25 in 10.0 mi South 11.5 mph - N/A   Overcast
12:53 PM 60.1 °F 48.9 °F 67% 30.23 in 10.0 mi SW 9.2 mph - N/A   Overcast
1:53 PM 61.0 °F 48.9 °F 64% 30.21 in 10.0 mi SW 4.6 mph - 0.00 in   Overcast
2:18 PM 60.8 °F 48.2 °F 63% 30.21 in 10.0 mi WSW 6.9 mph - N/A   Overcast
2:53 PM 61.0 °F 50.0 °F 67% 30.21 in 10.0 mi SSW 6.9 mph - N/A   Overcast
3:45 PM 60.8 °F 51.8 °F 72% 30.21 in 9.0 mi South 11.5 mph - N/A   Overcast
3:53 PM 59.0 °F 50.0 °F 72% 30.21 in 9.0 mi South 10.4 mph - N/A   Overcast
4:53 PM 57.9 °F 50.0 °F 75% 30.21 in 10.0 mi South 9.2 mph - N/A   Overcast
5:53 PM 57.2 °F 50.0 °F 77% 30.22 in 8.0 mi South 8.1 mph - N/A Rain Light Rain
6:53 PM 55.9 °F 51.1 °F 84% 30.23 in 7.0 mi South 6.9 mph - 0.00 in   Overcast
7:53 PM 55.9 °F 52.0 °F 87% 30.23 in 6.0 mi South 8.1 mph - 0.00 in   Overcast
8:28 PM 55.4 °F 51.8 °F 88% 30.23 in 5.0 mi SSW 6.9 mph - 0.00 in Rain Light Rain
8:53 PM 55.9 °F 52.0 °F 87% 30.24 in 5.0 mi SW 4.6 mph - 0.00 in Rain Light Rain
9:09 PM 55.4 °F 51.8 °F 88% 30.24 in 5.0 mi SSW 4.6 mph - 0.00 in Rain Light Rain
9:42 PM 55.4 °F 51.8 °F 88% 30.24 in 2.5 mi South 3.5 mph - 0.00 in Rain Light Rain
9:53 PM 55.0 °F 52.0 °F 89% 30.24 in 2.0 mi SW 5.8 mph - 0.01 in Rain Light Rain
10:03 PM 55.4 °F 51.8 °F 88% 30.24 in 2.0 mi WSW 4.6 mph - 0.00 in Rain Light Rain
10:17 PM 55.4 °F 51.8 °F 88% 30.24 in 2.5 mi SW 3.5 mph - 0.00 in   Overcast
10:40 PM 55.4 °F 51.8 °F 88% 30.23 in 2.5 mi SSW 3.5 mph - 0.00 in   Overcast
10:53 PM 55.0 °F 52.0 °F 89% 30.24 in 2.0 mi SW 3.5 mph - 0.00 in   Overcast
11:11 PM 55.4 °F 51.8 °F 88% 30.23 in 2.0 mi SSW 3.5 mph - N/A   Overcast
11:34 PM 55.4 °F 51.8 °F 88% 30.23 in 1.5 mi South 3.5 mph - 0.00 in Rain Light Rain
11:53 PM 54.0 °F 52.0 °F 93% 30.23 in 1.2 mi Calm Calm - 0.02 in Rain Light Rain